Time,TemperatureF,DewpointF,PressureIn,WindDirection,WindDirectionDegrees,WindSpeedMPH,WindSpeedGustMPH,Humidity,HourlyPrecipIn,Conditions,Clouds,dailyrainin,SoftwareType,DateUTC
2013-07-10 00:01:00,74.7,60.4,0.00,North,0,0.9,3.8,61,0.00,,,0.00,WUHU216HW,2013-07-10 07:01:00,
2013-07-10 00:06:00,74.5,60.7,0.00,NW,315,5.4,5.4,62,0.00,,,0.00,WUHU216HW,2013-07-10 07:06:00,
2013-07-10 00:11:00,74.2,60.3,0.00,NNW,338,2.5,5.4,62,0.00,,,0.00,WUHU216HW,2013-07-10 07:11:00,
2013-07-10 00:16:00,74.0,60.6,0.00,NNW,338,1.8,3.4,63,0.00,,,0.00,WUHU216HW,2013-07-10 07:16:00,
2013-07-10 00:21:00,73.8,60.4,0.00,NW,315,1.8,2.7,63,0.00,,,0.00,WUHU216HW,2013-07-10 07:21:00,
2013-07-10 00:26:00,73.6,60.2,0.00,North,0,0.9,3.4,63,0.00,,,0.00,WUHU216HW,2013-07-10 07:26:00,
2013-07-10 00:31:00,73.4,60.0,0.00,NW,315,5.1,5.1,63,0.00,,,0.00,WUHU216HW,2013-07-10 07:31:00,
2013-07-10 00:36:00,73.1,59.7,0.00,North,0,2.9,5.1,63,0.00,,,0.00,WUHU216HW,2013-07-10 07:36:00,
2013-07-10 00:41:00,73.1,59.7,0.00,NNE,23,3.1,6.5,63,0.00,,,0.00,WUHU216HW,2013-07-10 07:41:00,
2013-07-10 00:46:00,72.9,59.5,0.00,NW,315,1.3,6.5,63,0.00,,,0.00,WUHU216HW,2013-07-10 07:46:00,
2013-07-10 00:51:00,72.7,59.4,0.00,North,0,4.3,4.3,63,0.00,,,0.00,WUHU216HW,2013-07-10 07:51:00,
2013-07-10 00:56:00,72.7,59.4,0.00,North,0,0.4,4.3,63,0.00,,,0.00,WUHU216HW,2013-07-10 07:56:00,
2013-07-10 01:01:00,72.5,59.2,0.00,South,180,0.0,4.3,63,0.00,,,0.00,WUHU216HW,2013-07-10 08:01:00,
2013-07-10 01:06:00,72.2,59.3,0.00,NNW,338,0.0,1.8,64,0.00,,,0.00,WUHU216HW,2013-07-10 08:06:00,
2013-07-10 01:11:00,72.0,59.1,0.00,NNW,338,0.0,1.8,64,0.00,,,0.00,WUHU216HW,2013-07-10 08:11:00,
2013-07-10 01:16:00,71.8,59.0,0.00,NNW,338,0.0,0.0,64,0.00,,,0.00,WUHU216HW,2013-07-10 08:16:00,
2013-07-10 01:21:00,71.6,59.2,0.00,East,90,0.0,1.1,65,0.00,,,0.00,WUHU216HW,2013-07-10 08:21:00,
2013-07-10 01:26:00,71.3,58.9,0.00,NNW,338,0.0,1.8,65,0.00,,,0.00,WUHU216HW,2013-07-10 08:26:00,
2013-07-10 01:31:00,70.9,58.5,0.00,WNW,293,2.0,3.6,65,0.00,,,0.00,WUHU216HW,2013-07-10 08:31:00,
2013-07-10 01:36:00,70.9,58.5,0.00,WNW,293,1.3,3.6,65,0.00,,,0.00,WUHU216HW,2013-07-10 08:36:00,
2013-07-10 01:41:00,70.9,58.5,0.00,NNW,338,0.4,2.0,65,0.00,,,0.00,WUHU216HW,2013-07-10 08:41:00,
2013-07-10 01:46:00,70.6,58.2,0.00,NNW,338,0.4,2.0,65,0.00,,,0.00,WUHU216HW,2013-07-10 08:46:00,
2013-07-10 01:51:00,70.2,58.2,0.00,NW,315,0.7,2.0,66,0.00,,,0.00,WUHU216HW,2013-07-10 08:51:00,
2013-07-10 01:56:00,70.2,58.2,0.00,NW,315,2.2,2.5,66,0.00,,,0.00,WUHU216HW,2013-07-10 08:56:00,
2013-07-10 02:01:00,70.0,58.2,0.00,NNW,338,0.4,4.7,66,0.00,,,0.00,WUHU216HW,2013-07-10 09:01:00,
2013-07-10 02:06:00,70.2,58.2,0.00,WNW,293,2.0,4.7,66,0.00,,,0.00,WUHU216HW,2013-07-10 09:06:00,
2013-07-10 02:11:00,70.0,58.2,0.00,NNW,338,1.3,4.7,66,0.00,,,0.00,WUHU216HW,2013-07-10 09:11:00,
2013-07-10 02:16:00,69.8,58.3,0.00,NNW,338,2.0,3.4,67,0.00,,,0.00,WUHU216HW,2013-07-10 09:16:00,
2013-07-10 02:21:00,69.7,57.8,0.00,WNW,293,0.4,2.0,66,0.00,,,0.00,WUHU216HW,2013-07-10 09:21:00,
2013-07-10 02:26:00,69.5,57.6,0.00,NNE,23,0.4,2.0,66,0.00,,,0.00,WUHU216HW,2013-07-10 09:26:00,
2013-07-10 02:31:00,69.3,57.4,0.00,North,0,0.4,1.1,66,0.00,,,0.00,WUHU216HW,2013-07-10 09:31:00,
2013-07-10 02:36:00,69.1,57.7,0.00,NW,315,2.2,2.2,67,0.00,,,0.00,WUHU216HW,2013-07-10 09:36:00,
2013-07-10 02:41:00,68.9,57.5,0.00,NNW,338,0.0,2.2,67,0.00,,,0.00,WUHU216HW,2013-07-10 09:41:00,
2013-07-10 02:46:00,68.8,57.3,0.00,North,0,0.4,2.2,67,0.00,,,0.00,WUHU216HW,2013-07-10 09:46:00,
2013-07-10 02:51:00,68.6,57.6,0.00,NW,315,0.0,2.5,68,0.00,,,0.00,WUHU216HW,2013-07-10 09:51:00,
2013-07-10 02:56:00,68.4,57.4,0.00,NNE,23,0.0,2.5,68,0.00,,,0.00,WUHU216HW,2013-07-10 09:56:00,
2013-07-10 03:01:00,68.4,57.4,0.00,NE,45,0.0,1.6,68,0.00,,,0.00,WUHU216HW,2013-07-10 10:01:00,
2013-07-10 03:06:00,68.2,57.2,0.00,NNW,338,0.9,2.2,68,0.00,,,0.00,WUHU216HW,2013-07-10 10:06:00,
2013-07-10 03:11:00,68.0,57.5,0.00,SW,225,0.7,2.5,69,0.00,,,0.00,WUHU216HW,2013-07-10 10:11:00,
2013-07-10 03:16:00,67.9,57.3,0.00,North,0,0.7,2.5,69,0.00,,,0.00,WUHU216HW,2013-07-10 10:16:00,
2013-07-10 03:21:00,67.7,57.2,0.00,SSE,158,0.0,2.0,69,0.00,,,0.00,WUHU216HW,2013-07-10 10:21:00,
2013-07-10 03:26:00,67.7,57.2,0.00,West,270,0.4,3.4,69,0.00,,,0.00,WUHU216HW,2013-07-10 10:26:00,
2013-07-10 03:31:00,67.7,57.2,0.00,North,0,0.4,3.4,69,0.00,,,0.00,WUHU216HW,2013-07-10 10:31:00,
2013-07-10 03:36:00,67.7,56.7,0.00,North,0,0.0,1.1,68,0.00,,,0.00,WUHU216HW,2013-07-10 10:36:00,
2013-07-10 03:41:00,67.3,56.8,0.00,SSE,158,0.0,1.1,69,0.00,,,0.00,WUHU216HW,2013-07-10 10:41:00,
2013-07-10 03:46:00,67.0,56.4,0.00,North,0,0.7,1.8,69,0.00,,,0.00,WUHU216HW,2013-07-10 10:46:00,
2013-07-10 03:51:00,67.0,56.4,0.00,NNW,338,0.4,1.8,69,0.00,,,0.00,WUHU216HW,2013-07-10 10:51:00,
2013-07-10 03:56:00,66.8,56.7,0.00,North,0,0.9,1.1,70,0.00,,,0.00,WUHU216HW,2013-07-10 10:56:00,
2013-07-10 04:01:00,66.8,56.3,0.00,North,0,0.0,0.9,69,0.00,,,0.00,WUHU216HW,2013-07-10 11:01:00,
2013-07-10 04:06:00,66.6,56.5,0.00,NW,315,1.8,1.8,70,0.00,,,0.00,WUHU216HW,2013-07-10 11:06:00,
2013-07-10 04:11:00,66.4,56.3,0.00,SE,135,0.0,1.8,70,0.00,,,0.00,WUHU216HW,2013-07-10 11:11:00,
2013-07-10 04:16:00,66.2,56.2,0.00,SSE,158,0.0,2.2,70,0.00,,,0.00,WUHU216HW,2013-07-10 11:16:00,
2013-07-10 04:21:00,66.1,56.3,0.00,NW,315,1.1,2.2,71,0.00,,,0.00,WUHU216HW,2013-07-10 11:21:00,
2013-07-10 04:26:00,65.9,55.8,0.00,NW,315,0.0,1.1,70,0.00,,,0.00,WUHU216HW,2013-07-10 11:26:00,
2013-07-10 04:31:00,65.9,56.3,0.00,NNE,23,0.4,1.1,71,0.00,,,0.00,WUHU216HW,2013-07-10 11:31:00,
2013-07-10 04:36:00,65.5,56.3,0.00,NNW,338,0.4,1.3,72,0.00,,,0.00,WUHU216HW,2013-07-10 11:36:00,
2013-07-10 04:41:00,65.3,55.7,0.00,SSW,203,0.9,1.3,71,0.00,,,0.00,WUHU216HW,2013-07-10 11:41:00,
2013-07-10 04:46:00,65.0,55.8,0.00,NNW,338,0.2,1.6,72,0.00,,,0.00,WUHU216HW,2013-07-10 11:46:00,
2013-07-10 04:51:00,65.2,56.3,0.00,NW,315,1.1,1.6,73,0.00,,,0.00,WUHU216HW,2013-07-10 11:51:00,
2013-07-10 04:56:00,65.0,56.2,0.00,NW,315,0.9,1.6,73,0.00,,,0.00,WUHU216HW,2013-07-10 11:56:00,
2013-07-10 05:01:00,64.6,55.8,0.00,NW,315,0.9,1.3,73,0.00,,,0.00,WUHU216HW,2013-07-10 12:01:00,
2013-07-10 05:06:00,64.8,55.6,0.00,NNW,338,0.4,3.4,72,0.00,,,0.00,WUHU216HW,2013-07-10 12:06:00,
2013-07-10 05:11:00,64.8,55.6,0.00,North,0,0.4,3.4,72,0.00,,,0.00,WUHU216HW,2013-07-10 12:11:00,
2013-07-10 05:16:00,64.8,55.6,0.00,WNW,293,0.0,1.6,72,0.00,,,0.00,WUHU216HW,2013-07-10 12:16:00,
2013-07-10 05:21:00,64.4,55.6,0.00,NW,315,1.1,1.8,73,0.00,,,0.00,WUHU216HW,2013-07-10 12:21:00,
2013-07-10 05:26:00,64.4,55.3,0.00,SSW,203,1.1,2.9,72,0.00,,,0.00,WUHU216HW,2013-07-10 12:26:00,
2013-07-10 05:31:00,64.4,54.9,0.00,SSW,203,4.3,4.3,71,0.00,,,0.00,WUHU216HW,2013-07-10 12:31:00,
2013-07-10 05:36:00,64.4,54.9,0.00,SW,225,1.1,6.3,71,0.00,,,0.00,WUHU216HW,2013-07-10 12:36:00,
2013-07-10 05:41:00,64.3,54.7,0.00,NNW,338,0.7,6.3,71,0.00,,,0.00,WUHU216HW,2013-07-10 12:41:00,
2013-07-10 05:46:00,64.1,54.9,0.00,NNE,23,1.1,6.5,72,0.00,,,0.00,WUHU216HW,2013-07-10 12:46:00,
2013-07-10 05:51:00,63.9,54.7,0.00,NW,315,1.6,6.5,72,0.00,,,0.00,WUHU216HW,2013-07-10 12:51:00,
2013-07-10 05:56:00,63.7,54.9,0.00,WNW,293,1.1,5.6,73,0.00,,,0.00,WUHU216HW,2013-07-10 12:56:00,
2013-07-10 06:01:00,63.7,54.5,0.00,NW,315,2.9,4.0,72,0.00,,,0.00,WUHU216HW,2013-07-10 13:01:00,
2013-07-10 06:06:00,63.7,54.5,0.00,WNW,293,2.2,5.4,72,0.00,,,0.00,WUHU216HW,2013-07-10 13:06:00,
2013-07-10 06:11:00,63.7,54.5,0.00,NNE,23,1.8,5.4,72,0.00,,,0.00,WUHU216HW,2013-07-10 13:11:00,
2013-07-10 06:16:00,63.7,54.5,0.00,North,0,0.7,4.7,72,0.00,,,0.00,WUHU216HW,2013-07-10 13:16:00,
2013-07-10 06:21:00,63.7,54.5,0.00,NNE,23,2.5,5.1,72,0.00,,,0.00,WUHU216HW,2013-07-10 13:21:00,
2013-07-10 06:26:00,63.5,54.7,0.00,NNE,23,1.8,5.1,73,0.00,,,0.00,WUHU216HW,2013-07-10 13:26:00,
2013-07-10 06:31:00,63.4,54.5,0.00,NNW,338,1.1,4.5,73,0.00,,,0.00,WUHU216HW,2013-07-10 13:31:00,
2013-07-10 06:36:00,63.4,54.9,0.00,NNW,338,3.4,6.3,74,0.00,,,0.00,WUHU216HW,2013-07-10 13:36:00,
2013-07-10 06:41:00,63.2,54.7,0.00,West,270,5.4,6.9,74,0.00,,,0.00,WUHU216HW,2013-07-10 13:41:00,
2013-07-10 06:46:00,63.2,54.7,0.00,West,270,3.1,6.9,74,0.00,,,0.00,WUHU216HW,2013-07-10 13:46:00,
2013-07-10 06:51:00,63.2,54.7,0.00,NNW,338,1.1,5.4,74,0.00,,,0.00,WUHU216HW,2013-07-10 13:51:00,
2013-07-10 06:56:00,63.4,54.9,0.00,ENE,68,0.0,3.1,74,0.00,,,0.00,WUHU216HW,2013-07-10 13:56:00,
2013-07-10 07:01:00,63.4,54.5,0.00,North,0,0.4,2.7,73,0.00,,,0.00,WUHU216HW,2013-07-10 14:01:00,
2013-07-10 07:06:00,63.5,54.7,0.00,NNW,338,1.8,4.9,73,0.00,,,0.00,WUHU216HW,2013-07-10 14:06:00,
2013-07-10 07:11:00,63.7,54.9,0.00,North,0,0.9,4.9,73,0.00,,,0.00,WUHU216HW,2013-07-10 14:11:00,
2013-07-10 07:16:00,63.9,54.7,0.00,NW,315,0.4,3.6,72,0.00,,,0.00,WUHU216HW,2013-07-10 14:16:00,
2013-07-10 07:21:00,63.7,54.5,0.00,East,90,2.5,3.6,72,0.00,,,0.00,WUHU216HW,2013-07-10 14:21:00,
2013-07-10 07:26:00,63.7,54.9,0.00,NNW,338,6.3,7.8,73,0.00,,,0.00,WUHU216HW,2013-07-10 14:26:00,
2013-07-10 07:31:00,63.7,54.9,0.00,West,270,3.4,7.8,73,0.00,,,0.00,WUHU216HW,2013-07-10 14:31:00,
2013-07-10 07:36:00,63.7,54.9,0.00,NW,315,2.7,6.3,73,0.00,,,0.00,WUHU216HW,2013-07-10 14:36:00,
2013-07-10 07:41:00,63.7,54.9,0.00,NNW,338,1.1,6.0,73,0.00,,,0.00,WUHU216HW,2013-07-10 14:41:00,
2013-07-10 07:46:00,64.1,55.3,0.00,NNW,338,1.8,2.9,73,0.00,,,0.00,WUHU216HW,2013-07-10 14:46:00,
2013-07-10 07:51:00,64.3,55.1,0.00,NNW,338,2.2,6.5,72,0.00,,,0.00,WUHU216HW,2013-07-10 14:51:00,
2013-07-10 07:56:00,64.4,55.3,0.00,NW,315,2.5,6.5,72,0.00,,,0.00,WUHU216HW,2013-07-10 14:56:00,
2013-07-10 08:01:00,64.8,55.3,0.00,NW,315,1.6,4.7,71,0.00,,,0.00,WUHU216HW,2013-07-10 15:01:00,
2013-07-10 08:06:00,65.0,55.0,0.00,NW,315,1.1,3.1,70,0.00,,,0.00,WUHU216HW,2013-07-10 15:06:00,
2013-07-10 08:11:00,65.2,55.5,0.00,North,0,0.7,3.1,71,0.00,,,0.00,WUHU216HW,2013-07-10 15:11:00,
2013-07-10 08:16:00,65.3,55.4,0.00,WNW,293,4.0,4.7,70,0.00,,,0.00,WUHU216HW,2013-07-10 15:16:00,
2013-07-10 08:21:00,65.5,55.5,0.00,NNW,338,1.8,4.7,70,0.00,,,0.00,WUHU216HW,2013-07-10 15:21:00,
2013-07-10 08:26:00,65.5,55.5,0.00,NNW,338,1.8,4.5,70,0.00,,,0.00,WUHU216HW,2013-07-10 15:26:00,
2013-07-10 08:31:00,65.7,55.7,0.00,North,0,1.8,4.7,70,0.00,,,0.00,WUHU216HW,2013-07-10 15:31:00,
2013-07-10 08:36:00,65.9,55.5,0.00,West,270,6.3,6.3,69,0.00,,,0.00,WUHU216HW,2013-07-10 15:36:00,
2013-07-10 08:41:00,65.9,55.5,0.00,NNW,338,1.6,6.3,69,0.00,,,0.00,WUHU216HW,2013-07-10 15:41:00,
2013-07-10 08:46:00,66.1,55.6,0.00,West,270,1.8,9.2,69,0.00,,,0.00,WUHU216HW,2013-07-10 15:46:00,
2013-07-10 08:51:00,66.2,55.7,0.00,NW,315,4.0,9.2,69,0.00,,,0.00,WUHU216HW,2013-07-10 15:51:00,
2013-07-10 08:56:00,66.4,55.9,0.00,NW,315,2.2,5.8,69,0.00,,,0.00,WUHU216HW,2013-07-10 15:56:00,
2013-07-10 09:01:00,66.8,56.3,0.00,West,270,6.0,6.0,69,0.00,,,0.00,WUHU216HW,2013-07-10 16:01:00,
2013-07-10 09:06:00,67.0,56.4,0.00,WNW,293,4.3,8.3,69,0.00,,,0.00,WUHU216HW,2013-07-10 16:06:00,
2013-07-10 09:11:00,67.1,56.3,0.00,NW,315,1.6,8.3,68,0.00,,,0.00,WUHU216HW,2013-07-10 16:11:00,
2013-07-10 09:16:00,67.3,56.4,0.00,NW,315,2.2,7.4,68,0.00,,,0.00,WUHU216HW,2013-07-10 16:16:00,
2013-07-10 09:21:00,67.7,56.4,0.00,NNE,23,2.0,5.8,67,0.00,,,0.00,WUHU216HW,2013-07-10 16:21:00,
2013-07-10 09:26:00,67.7,56.4,0.00,NNW,338,3.6,6.9,67,0.00,,,0.00,WUHU216HW,2013-07-10 16:26:00,
2013-07-10 09:31:00,67.9,56.5,0.00,SSW,203,1.8,6.9,67,0.00,,,0.00,WUHU216HW,2013-07-10 16:31:00,
2013-07-10 09:36:00,68.2,56.4,0.00,NNW,338,5.6,5.6,66,0.00,,,0.00,WUHU216HW,2013-07-10 16:36:00,
2013-07-10 09:41:00,68.2,56.0,0.00,North,0,4.0,8.5,65,0.00,,,0.00,WUHU216HW,2013-07-10 16:41:00,
2013-07-10 09:46:00,68.9,56.7,0.00,NW,315,4.0,8.5,65,0.00,,,0.00,WUHU216HW,2013-07-10 16:46:00,
2013-07-10 09:51:00,69.1,56.0,0.00,NW,315,4.7,6.7,63,0.00,,,0.00,WUHU216HW,2013-07-10 16:51:00,
2013-07-10 09:56:00,69.3,56.6,0.00,WSW,248,2.0,6.7,64,0.00,,,0.00,WUHU216HW,2013-07-10 16:56:00,
2013-07-10 10:01:00,69.7,56.5,0.00,NNW,338,2.7,5.4,63,0.00,,,0.00,WUHU216HW,2013-07-10 17:01:00,
2013-07-10 10:06:00,70.2,57.1,0.00,NNW,338,3.1,6.3,63,0.00,,,0.00,WUHU216HW,2013-07-10 17:06:00,
2013-07-10 10:11:00,70.6,56.5,0.00,WNW,293,3.1,6.3,61,0.00,,,0.00,WUHU216HW,2013-07-10 17:11:00,
2013-07-10 10:16:00,70.9,56.9,0.00,North,0,4.0,4.5,61,0.00,,,0.00,WUHU216HW,2013-07-10 17:16:00,
2013-07-10 10:21:00,71.5,57.8,0.00,NW,315,2.7,4.5,62,0.00,,,0.00,WUHU216HW,2013-07-10 17:21:00,
2013-07-10 10:26:00,71.6,57.1,0.00,NW,315,2.5,5.6,60,0.00,,,0.00,WUHU216HW,2013-07-10 17:26:00,
2013-07-10 10:31:00,71.6,57.1,0.00,NNE,23,3.1,6.3,60,0.00,,,0.00,WUHU216HW,2013-07-10 17:31:00,
2013-07-10 10:36:00,72.0,56.9,0.00,NW,315,4.5,6.3,59,0.00,,,0.00,WUHU216HW,2013-07-10 17:36:00,
2013-07-10 10:41:00,72.2,57.1,0.00,NW,315,1.8,6.9,59,0.00,,,0.00,WUHU216HW,2013-07-10 17:41:00,
2013-07-10 10:46:00,72.7,57.1,0.00,NNW,338,2.5,6.9,58,0.00,,,0.00,WUHU216HW,2013-07-10 17:46:00,
2013-07-10 10:51:00,72.5,57.3,0.00,NNW,338,2.0,6.9,59,0.00,,,0.00,WUHU216HW,2013-07-10 17:51:00,
2013-07-10 10:56:00,73.1,57.9,0.00,NNE,23,1.8,6.9,59,0.00,,,0.00,WUHU216HW,2013-07-10 17:56:00,
2013-07-10 11:01:00,73.8,57.1,0.00,WNW,293,1.3,5.4,56,0.00,,,0.00,WUHU216HW,2013-07-10 18:01:00,
2013-07-10 11:06:00,73.6,57.3,0.00,NNE,23,1.8,5.4,57,0.00,,,0.00,WUHU216HW,2013-07-10 18:06:00,
2013-07-10 11:11:00,73.8,57.1,0.00,NNW,338,5.1,5.1,56,0.00,,,0.00,WUHU216HW,2013-07-10 18:11:00,
2013-07-10 11:16:00,74.3,58.1,0.00,North,0,1.1,5.1,57,0.00,,,0.00,WUHU216HW,2013-07-10 18:16:00,
2013-07-10 11:21:00,75.2,58.0,0.00,NNE,23,1.8,5.1,55,0.00,,,0.00,WUHU216HW,2013-07-10 18:21:00,
2013-07-10 11:26:00,75.6,57.2,0.00,WSW,248,3.4,4.0,53,0.00,,,0.00,WUHU216HW,2013-07-10 18:26:00,
2013-07-10 11:31:00,75.8,57.4,0.00,SE,135,1.8,4.0,53,0.00,,,0.00,WUHU216HW,2013-07-10 18:31:00,
2013-07-10 11:36:00,76.0,57.6,0.00,NE,45,1.6,6.9,53,0.00,,,0.00,WUHU216HW,2013-07-10 18:36:00,
2013-07-10 11:41:00,76.3,57.4,0.00,WNW,293,5.1,7.2,52,0.00,,,0.00,WUHU216HW,2013-07-10 18:41:00,
2013-07-10 11:46:00,76.1,57.8,0.00,NNW,338,3.4,8.3,53,0.00,,,0.00,WUHU216HW,2013-07-10 18:46:00,
2013-07-10 11:51:00,76.5,57.6,0.00,West,270,7.4,8.3,52,0.00,,,0.00,WUHU216HW,2013-07-10 18:51:00,
2013-07-10 11:56:00,76.5,57.6,0.00,North,0,2.5,7.4,52,0.00,,,0.00,WUHU216HW,2013-07-10 18:56:00,
2013-07-10 12:01:00,76.9,57.4,0.00,North,0,1.8,7.4,51,0.00,,,0.00,WUHU216HW,2013-07-10 19:01:00,
2013-07-10 12:06:00,77.4,57.4,0.00,NW,315,6.0,8.1,50,0.00,,,0.00,WUHU216HW,2013-07-10 19:06:00,
2013-07-10 12:11:00,77.4,57.4,0.00,NW,315,6.9,8.1,50,0.00,,,0.00,WUHU216HW,2013-07-10 19:11:00,
2013-07-10 12:16:00,77.6,57.0,0.00,WSW,248,4.0,8.9,49,0.00,,,0.00,WUHU216HW,2013-07-10 19:16:00,
2013-07-10 12:21:00,77.9,57.2,0.00,NW,315,6.9,8.9,49,0.00,,,0.00,WUHU216HW,2013-07-10 19:21:00,
2013-07-10 12:26:00,78.1,57.4,0.00,North,0,2.2,8.5,49,0.00,,,0.00,WUHU216HW,2013-07-10 19:26:00,
2013-07-10 12:31:00,78.1,56.8,0.00,NE,45,4.9,8.5,48,0.00,,,0.00,WUHU216HW,2013-07-10 19:31:00,
2013-07-10 12:36:00,78.5,57.2,0.00,NW,315,7.2,8.7,48,0.00,,,0.00,WUHU216HW,2013-07-10 19:36:00,
2013-07-10 12:41:00,78.7,57.3,0.00,NNW,338,2.2,8.7,48,0.00,,,0.00,WUHU216HW,2013-07-10 19:41:00,
2013-07-10 12:46:00,79.0,57.0,0.00,NW,315,5.6,7.4,47,0.00,,,0.00,WUHU216HW,2013-07-10 19:46:00,
2013-07-10 12:51:00,79.6,56.3,0.00,West,270,5.1,7.4,45,0.00,,,0.00,WUHU216HW,2013-07-10 19:51:00,
2013-07-10 12:56:00,79.9,56.6,0.00,NW,315,5.4,5.6,45,0.00,,,0.00,WUHU216HW,2013-07-10 19:56:00,
2013-07-10 13:01:00,80.1,56.2,0.00,WNW,293,7.8,8.3,44,0.00,,,0.00,WUHU216HW,2013-07-10 20:01:00,
2013-07-10 13:06:00,80.6,56.6,0.00,North,0,1.1,8.3,44,0.00,,,0.00,WUHU216HW,2013-07-10 20:06:00,
2013-07-10 13:11:00,81.5,56.3,0.00,South,180,2.7,7.8,42,0.00,,,0.00,WUHU216HW,2013-07-10 20:11:00,
2013-07-10 13:16:00,81.5,55.6,0.00,NNW,338,3.4,5.8,41,0.00,,,0.00,WUHU216HW,2013-07-10 20:16:00,
2013-07-10 13:21:00,81.7,56.3,0.00,North,0,1.3,5.4,42,0.00,,,0.00,WUHU216HW,2013-07-10 20:21:00,
2013-07-10 13:26:00,82.6,56.6,0.00,West,270,4.9,5.4,41,0.00,,,0.00,WUHU216HW,2013-07-10 20:26:00,
2013-07-10 13:31:00,83.0,55.5,0.00,North,0,2.5,4.9,39,0.00,,,0.00,WUHU216HW,2013-07-10 20:31:00,
2013-07-10 13:36:00,83.2,54.9,0.00,SW,225,6.3,6.3,38,0.00,,,0.00,WUHU216HW,2013-07-10 20:36:00,
2013-07-10 13:41:00,83.3,54.3,0.00,NNE,23,1.3,7.4,37,0.00,,,0.00,WUHU216HW,2013-07-10 20:41:00,
2013-07-10 13:46:00,83.7,55.4,0.00,North,0,1.8,7.4,38,0.00,,,0.00,WUHU216HW,2013-07-10 20:46:00,
2013-07-10 13:51:00,84.2,55.1,0.00,NW,315,0.9,3.4,37,0.00,,,0.00,WUHU216HW,2013-07-10 20:51:00,
2013-07-10 13:56:00,84.8,55.5,0.00,SSW,203,1.1,6.0,37,0.00,,,0.00,WUHU216HW,2013-07-10 20:56:00,
2013-07-10 14:01:00,85.3,54.5,0.00,NNW,338,2.9,6.3,35,0.00,,,0.00,WUHU216HW,2013-07-10 21:01:00,
2013-07-10 14:06:00,85.5,53.8,0.00,NNW,338,1.8,6.3,34,0.00,,,0.00,WUHU216HW,2013-07-10 21:06:00,
2013-07-10 14:11:00,85.3,52.8,0.00,NE,45,0.7,6.5,33,0.00,,,0.00,WUHU216HW,2013-07-10 21:11:00,
2013-07-10 14:16:00,85.3,53.6,0.00,NNW,338,1.8,6.5,34,0.00,,,0.00,WUHU216HW,2013-07-10 21:16:00,
2013-07-10 14:21:00,85.5,53.8,0.00,NW,315,2.5,3.8,34,0.00,,,0.00,WUHU216HW,2013-07-10 21:21:00,
2013-07-10 14:26:00,85.7,53.2,0.00,SSE,158,2.0,4.0,33,0.00,,,0.00,WUHU216HW,2013-07-10 21:26:00,
2013-07-10 14:31:00,85.7,54.0,0.00,SSW,203,2.0,4.3,34,0.00,,,0.00,WUHU216HW,2013-07-10 21:31:00,
2013-07-10 14:36:00,86.0,54.3,0.00,WNW,293,5.1,5.1,34,0.00,,,0.00,WUHU216HW,2013-07-10 21:36:00,
2013-07-10 14:41:00,86.0,53.5,0.00,NNW,338,2.5,5.4,33,0.00,,,0.00,WUHU216HW,2013-07-10 21:41:00,
2013-07-10 14:46:00,86.0,54.3,0.00,North,0,1.3,5.4,34,0.00,,,0.00,WUHU216HW,2013-07-10 21:46:00,
2013-07-10 14:51:00,85.7,54.0,0.00,East,90,1.8,7.6,34,0.00,,,0.00,WUHU216HW,2013-07-10 21:51:00,
2013-07-10 14:56:00,85.7,53.2,0.00,West,270,6.3,7.6,33,0.00,,,0.00,WUHU216HW,2013-07-10 21:56:00,
2013-07-10 15:01:00,86.2,54.5,0.00,SW,225,6.3,6.3,34,0.00,,,0.00,WUHU216HW,2013-07-10 22:01:00,
2013-07-10 15:06:00,85.7,54.0,0.00,North,0,3.6,7.6,34,0.00,,,0.00,WUHU216HW,2013-07-10 22:06:00,
2013-07-10 15:11:00,84.6,55.4,0.00,West,270,4.0,9.6,37,0.00,,,0.00,WUHU216HW,2013-07-10 22:11:00,
2013-07-10 15:16:00,85.3,56.0,0.00,SE,135,1.6,9.6,37,0.00,,,0.00,WUHU216HW,2013-07-10 22:16:00,
2013-07-10 15:21:00,86.0,55.9,0.00,West,270,4.0,4.9,36,0.00,,,0.00,WUHU216HW,2013-07-10 22:21:00,
2013-07-10 15:26:00,85.7,54.7,0.00,NNW,338,4.3,11.9,35,0.00,,,0.00,WUHU216HW,2013-07-10 22:26:00,
2013-07-10 15:32:00,85.3,54.5,0.00,NNW,338,3.6,11.9,35,0.00,,,0.00,WUHU216HW,2013-07-10 22:32:00,
2013-07-10 15:37:00,85.5,55.4,0.00,NNW,338,4.7,6.7,36,0.00,,,0.00,WUHU216HW,2013-07-10 22:37:00,
2013-07-10 15:42:00,85.7,56.3,0.00,SSW,203,1.8,6.7,37,0.00,,,0.00,WUHU216HW,2013-07-10 22:42:00,
2013-07-10 15:47:00,85.5,56.2,0.00,North,0,0.9,5.8,37,0.00,,,0.00,WUHU216HW,2013-07-10 22:47:00,
2013-07-10 15:52:00,85.3,56.0,0.00,North,0,2.2,8.7,37,0.00,,,0.00,WUHU216HW,2013-07-10 22:52:00,
2013-07-10 15:57:00,85.3,56.0,0.00,North,0,1.8,8.7,37,0.00,,,0.00,WUHU216HW,2013-07-10 22:57:00,
2013-07-10 16:02:00,85.5,56.2,0.00,North,0,1.1,5.6,37,0.00,,,0.00,WUHU216HW,2013-07-10 23:02:00,
2013-07-10 16:07:00,85.0,56.5,0.00,NNW,338,4.5,9.2,38,0.00,,,0.00,WUHU216HW,2013-07-10 23:07:00,
2013-07-10 16:12:00,84.8,56.4,0.00,NW,315,7.2,10.7,38,0.00,,,0.00,WUHU216HW,2013-07-10 23:12:00,
2013-07-10 16:17:00,85.0,56.5,0.00,NNW,338,2.9,10.7,38,0.00,,,0.00,WUHU216HW,2013-07-10 23:17:00,
2013-07-10 16:22:00,84.8,57.2,0.00,NW,315,1.8,7.2,39,0.00,,,0.00,WUHU216HW,2013-07-10 23:22:00,
2013-07-10 16:27:00,84.2,56.6,0.00,NW,315,0.9,6.9,39,0.00,,,0.00,WUHU216HW,2013-07-10 23:27:00,
2013-07-10 16:32:00,84.6,56.2,0.00,West,270,4.9,7.6,38,0.00,,,0.00,WUHU216HW,2013-07-10 23:32:00,
2013-07-10 16:37:00,84.6,57.0,0.00,NW,315,6.3,7.6,39,0.00,,,0.00,WUHU216HW,2013-07-10 23:37:00,
2013-07-10 16:42:00,84.6,57.0,0.00,NNW,338,2.2,7.2,39,0.00,,,0.00,WUHU216HW,2013-07-10 23:42:00,
2013-07-10 16:47:00,85.0,56.5,0.00,NW,315,2.5,7.2,38,0.00,,,0.00,WUHU216HW,2013-07-10 23:47:00,
2013-07-10 16:52:00,84.8,56.4,0.00,NNW,338,2.0,8.7,38,0.00,,,0.00,WUHU216HW,2013-07-10 23:52:00,
2013-07-10 16:57:00,84.4,56.0,0.00,North,0,1.8,8.7,38,0.00,,,0.00,WUHU216HW,2013-07-10 23:57:00,
2013-07-10 17:02:00,85.0,57.2,0.00,SSE,158,0.7,5.1,39,0.00,,,0.00,WUHU216HW,2013-07-11 00:02:00,
2013-07-10 17:07:00,85.3,56.8,0.00,NW,315,2.9,4.5,38,0.00,,,0.00,WUHU216HW,2013-07-11 00:07:00,
2013-07-10 17:12:00,85.0,55.7,0.00,WSW,248,3.4,4.5,37,0.00,,,0.00,WUHU216HW,2013-07-11 00:12:00,
2013-07-10 17:17:00,84.2,55.1,0.00,WSW,248,2.2,7.2,37,0.00,,,0.00,WUHU216HW,2013-07-11 00:17:00,
2013-07-10 17:22:00,84.4,54.5,0.00,NW,315,4.9,7.2,36,0.00,,,0.00,WUHU216HW,2013-07-11 00:22:00,
2013-07-10 17:27:00,84.2,55.1,0.00,NNW,338,2.9,5.4,37,0.00,,,0.00,WUHU216HW,2013-07-11 00:27:00,
2013-07-10 17:32:00,84.2,53.5,0.00,WNW,293,2.5,4.9,35,0.00,,,0.00,WUHU216HW,2013-07-11 00:32:00,
2013-07-10 17:37:00,84.6,55.4,0.00,East,90,1.3,6.9,37,0.00,,,0.00,WUHU216HW,2013-07-11 00:37:00,
2013-07-10 17:42:00,84.4,53.7,0.00,NNW,338,3.4,8.9,35,0.00,,,0.00,WUHU216HW,2013-07-11 00:42:00,
2013-07-10 17:47:00,84.1,53.3,0.00,WNW,293,3.4,8.9,35,0.00,,,0.00,WUHU216HW,2013-07-11 00:47:00,
2013-07-10 17:52:00,83.9,53.9,0.00,WNW,293,8.5,8.5,36,0.00,,,0.00,WUHU216HW,2013-07-11 00:52:00,
2013-07-10 17:57:00,84.2,53.5,0.00,WNW,293,3.6,8.5,35,0.00,,,0.00,WUHU216HW,2013-07-11 00:57:00,
2013-07-10 18:02:00,84.4,54.5,0.00,ENE,68,2.5,8.5,36,0.00,,,0.00,WUHU216HW,2013-07-11 01:02:00,
2013-07-10 18:07:00,84.4,53.7,0.00,WNW,293,1.8,7.6,35,0.00,,,0.00,WUHU216HW,2013-07-11 01:07:00,
2013-07-10 18:12:00,84.4,53.7,0.00,NNW,338,2.9,6.7,35,0.00,,,0.00,WUHU216HW,2013-07-11 01:12:00,
2013-07-10 18:17:00,84.6,53.0,0.00,NNW,338,2.9,6.7,34,0.00,,,0.00,WUHU216HW,2013-07-11 01:17:00,
2013-07-10 18:22:00,83.9,53.1,0.00,WSW,248,2.5,5.4,35,0.00,,,0.00,WUHU216HW,2013-07-11 01:22:00,
2013-07-10 18:27:00,83.9,53.1,0.00,North,0,1.1,6.9,35,0.00,,,0.00,WUHU216HW,2013-07-11 01:27:00,
2013-07-10 18:32:00,83.7,53.0,0.00,North,0,0.9,6.9,35,0.00,,,0.00,WUHU216HW,2013-07-11 01:32:00,
2013-07-10 18:37:00,83.7,53.7,0.00,North,0,2.2,5.4,36,0.00,,,0.00,WUHU216HW,2013-07-11 01:37:00,
2013-07-10 18:42:00,83.5,52.8,0.00,WNW,293,3.4,5.1,35,0.00,,,0.00,WUHU216HW,2013-07-11 01:42:00,
2013-07-10 18:47:00,83.3,53.5,0.00,WSW,248,2.5,4.9,36,0.00,,,0.00,WUHU216HW,2013-07-11 01:47:00,
2013-07-10 18:52:00,83.2,52.5,0.00,WNW,293,4.7,6.9,35,0.00,,,0.00,WUHU216HW,2013-07-11 01:52:00,
2013-07-10 18:57:00,82.8,53.7,0.00,NNW,338,1.1,6.9,37,0.00,,,0.00,WUHU216HW,2013-07-11 01:57:00,
2013-07-10 19:02:00,82.6,53.6,0.00,NW,315,4.7,4.7,37,0.00,,,0.00,WUHU216HW,2013-07-11 02:02:00,
2013-07-10 19:07:00,82.3,53.3,0.00,NNW,338,1.8,5.4,37,0.00,,,0.00,WUHU216HW,2013-07-11 02:07:00,
2013-07-10 19:12:00,82.1,53.1,0.00,NNW,338,3.4,6.9,37,0.00,,,0.00,WUHU216HW,2013-07-11 02:12:00,
2013-07-10 19:17:00,81.5,53.5,0.00,NNW,338,2.5,6.9,38,0.00,,,0.00,WUHU216HW,2013-07-11 02:17:00,
2013-07-10 19:22:00,81.4,53.3,0.00,NNW,338,4.9,7.2,38,0.00,,,0.00,WUHU216HW,2013-07-11 02:22:00,
2013-07-10 19:27:00,81.2,53.9,0.00,NNW,338,3.1,7.2,39,0.00,,,0.00,WUHU216HW,2013-07-11 02:27:00,
2013-07-10 19:32:00,80.8,53.6,0.00,NW,315,2.2,6.0,39,0.00,,,0.00,WUHU216HW,2013-07-11 02:32:00,
2013-07-10 19:37:00,80.5,53.3,0.00,NNW,338,0.7,6.0,39,0.00,,,0.00,WUHU216HW,2013-07-11 02:37:00,
2013-07-10 19:42:00,80.1,53.7,0.00,NNW,338,1.3,5.6,40,0.00,,,0.00,WUHU216HW,2013-07-11 02:42:00,
2013-07-10 19:47:00,79.6,53.2,0.00,NW,315,0.4,5.6,40,0.00,,,0.00,WUHU216HW,2013-07-11 02:47:00,
2013-07-10 19:52:00,79.4,53.6,0.00,NW,315,0.7,4.0,41,0.00,,,0.00,WUHU216HW,2013-07-11 02:52:00,
2013-07-10 19:57:00,79.2,53.5,0.00,NNW,338,1.3,2.5,41,0.00,,,0.00,WUHU216HW,2013-07-11 02:57:00,
2013-07-10 20:02:00,78.8,53.2,0.00,SSE,158,1.8,3.8,41,0.00,,,0.00,WUHU216HW,2013-07-11 03:02:00,
2013-07-10 20:07:00,78.8,53.8,0.00,NW,315,2.5,3.8,42,0.00,,,0.00,WUHU216HW,2013-07-11 03:07:00,
2013-07-10 20:12:00,78.1,53.1,0.00,NNE,23,3.1,4.0,42,0.00,,,0.00,WUHU216HW,2013-07-11 03:12:00,
2013-07-10 20:17:00,77.8,53.5,0.00,WNW,293,0.4,4.0,43,0.00,,,0.00,WUHU216HW,2013-07-11 03:17:00,
2013-07-10 20:22:00,77.4,53.1,0.00,WNW,293,1.8,5.8,43,0.00,,,0.00,WUHU216HW,2013-07-11 03:22:00,
2013-07-10 20:27:00,77.2,52.9,0.00,WNW,293,5.4,5.8,43,0.00,,,0.00,WUHU216HW,2013-07-11 03:27:00,
2013-07-10 20:32:00,76.9,52.0,0.00,NW,315,2.5,5.6,42,0.00,,,0.00,WUHU216HW,2013-07-11 03:32:00,
2013-07-10 20:37:00,76.7,52.5,0.00,North,0,3.6,5.8,43,0.00,,,0.00,WUHU216HW,2013-07-11 03:37:00,
2013-07-10 20:42:00,76.7,53.1,0.00,SSW,203,0.4,5.8,44,0.00,,,0.00,WUHU216HW,2013-07-11 03:42:00,
2013-07-10 20:47:00,76.5,52.9,0.00,NNW,338,0.2,3.6,44,0.00,,,0.00,WUHU216HW,2013-07-11 03:47:00,
2013-07-10 20:52:00,76.3,52.7,0.00,NNW,338,1.8,3.4,44,0.00,,,0.00,WUHU216HW,2013-07-11 03:52:00,
2013-07-10 20:57:00,76.0,51.9,0.00,NW,315,4.0,4.7,43,0.00,,,0.00,WUHU216HW,2013-07-11 03:57:00,
2013-07-10 21:01:00,75.8,52.3,0.00,WSW,248,2.5,4.7,44,0.00,,,0.00,WUHU216HW,2013-07-11 04:01:00,
2013-07-10 21:06:00,75.6,51.5,0.00,NW,315,0.7,4.7,43,0.00,,,0.00,WUHU216HW,2013-07-11 04:06:00,
2013-07-10 21:11:00,75.4,50.7,0.00,NNW,338,3.4,4.3,42,0.00,,,0.00,WUHU216HW,2013-07-11 04:11:00,
2013-07-10 21:16:00,75.1,51.6,0.00,NNW,338,4.7,6.7,44,0.00,,,0.00,WUHU216HW,2013-07-11 04:16:00,
2013-07-10 21:21:00,74.7,51.8,0.00,North,0,4.7,7.4,45,0.00,,,0.00,WUHU216HW,2013-07-11 04:21:00,
2013-07-10 21:26:00,74.5,52.3,0.00,NW,315,4.3,9.4,46,0.00,,,0.00,WUHU216HW,2013-07-11 04:26:00,
2013-07-10 21:31:00,74.3,52.8,0.00,NNW,338,3.6,9.4,47,0.00,,,0.00,WUHU216HW,2013-07-11 04:31:00,
2013-07-10 21:36:00,74.2,52.6,0.00,North,0,3.1,8.5,47,0.00,,,0.00,WUHU216HW,2013-07-11 04:36:00,
2013-07-10 21:41:00,74.0,53.0,0.00,NW,315,3.8,8.5,48,0.00,,,0.00,WUHU216HW,2013-07-11 04:41:00,
2013-07-10 21:46:00,73.8,52.8,0.00,NW,315,3.1,8.5,48,0.00,,,0.00,WUHU216HW,2013-07-11 04:46:00,
2013-07-10 21:51:00,73.6,52.7,0.00,NW,315,5.4,8.5,48,0.00,,,0.00,WUHU216HW,2013-07-11 04:51:00,
2013-07-10 21:56:00,73.4,53.0,0.00,WSW,248,4.0,6.5,49,0.00,,,0.00,WUHU216HW,2013-07-11 04:56:00,
2013-07-10 22:01:00,73.1,53.3,0.00,NW,315,6.0,8.3,50,0.00,,,0.00,WUHU216HW,2013-07-11 05:01:00,
2013-07-10 22:06:00,72.9,53.2,0.00,North,0,3.8,8.5,50,0.00,,,0.00,WUHU216HW,2013-07-11 05:06:00,
2013-07-10 22:11:00,72.7,53.0,0.00,NW,315,6.3,8.5,50,0.00,,,0.00,WUHU216HW,2013-07-11 05:11:00,
2013-07-10 22:16:00,72.4,53.2,0.00,WSW,248,3.1,8.9,51,0.00,,,0.00,WUHU216HW,2013-07-11 05:16:00,
2013-07-10 22:21:00,72.2,52.5,0.00,NW,315,3.4,8.9,50,0.00,,,0.00,WUHU216HW,2013-07-11 05:21:00,
2013-07-10 22:26:00,72.0,53.4,0.00,NW,315,3.4,6.7,52,0.00,,,0.00,WUHU216HW,2013-07-11 05:26:00,
2013-07-10 22:31:00,71.6,54.0,0.00,West,270,3.8,4.7,54,0.00,,,0.00,WUHU216HW,2013-07-11 05:31:00,
2013-07-10 22:36:00,71.5,54.4,0.00,NNW,338,2.5,4.0,55,0.00,,,0.00,WUHU216HW,2013-07-11 05:36:00,
2013-07-10 22:41:00,70.9,53.4,0.00,ENE,68,1.1,4.0,54,0.00,,,0.00,WUHU216HW,2013-07-11 05:41:00,
2013-07-10 22:46:00,70.6,53.6,0.00,NNW,338,3.6,3.6,55,0.00,,,0.00,WUHU216HW,2013-07-11 05:46:00,
2013-07-10 22:51:00,70.2,53.3,0.00,South,180,2.2,4.0,55,0.00,,,0.00,WUHU216HW,2013-07-11 05:51:00,
2013-07-10 22:56:00,70.0,52.6,0.00,NNW,338,2.9,4.0,54,0.00,,,0.00,WUHU216HW,2013-07-11 05:56:00,
2013-07-10 23:01:00,69.7,52.3,0.00,NNW,338,1.1,3.8,54,0.00,,,0.00,WUHU216HW,2013-07-11 06:01:00,
2013-07-10 23:06:00,69.3,52.4,0.00,NNW,338,1.3,4.3,55,0.00,,,0.00,WUHU216HW,2013-07-11 06:06:00,
2013-07-10 23:11:00,68.8,52.4,0.00,NW,315,2.2,4.3,56,0.00,,,0.00,WUHU216HW,2013-07-11 06:11:00,
2013-07-10 23:16:00,68.6,52.2,0.00,NNW,338,2.0,4.0,56,0.00,,,0.00,WUHU216HW,2013-07-11 06:16:00,
2013-07-10 23:21:00,68.4,52.0,0.00,NW,315,4.5,4.5,56,0.00,,,0.00,WUHU216HW,2013-07-11 06:21:00,
2013-07-10 23:26:00,68.0,51.7,0.00,North,0,3.4,4.5,56,0.00,,,0.00,WUHU216HW,2013-07-11 06:26:00,
2013-07-10 23:31:00,67.9,52.0,0.00,North,0,1.8,4.5,57,0.00,,,0.00,WUHU216HW,2013-07-11 06:31:00,
2013-07-10 23:36:00,67.5,51.7,0.00,NNW,338,1.6,4.7,57,0.00,,,0.00,WUHU216HW,2013-07-11 06:36:00,
2013-07-10 23:41:00,67.3,51.0,0.00,NNW,338,3.6,5.4,56,0.00,,,0.00,WUHU216HW,2013-07-11 06:41:00,
2013-07-10 23:46:00,67.1,51.4,0.00,NW,315,2.2,6.3,57,0.00,,,0.00,WUHU216HW,2013-07-11 06:46:00,
2013-07-10 23:51:00,67.0,51.2,0.00,NW,315,6.0,6.3,57,0.00,,,0.00,WUHU216HW,2013-07-11 06:51:00,
2013-07-10 23:56:00,66.6,50.9,0.00,NW,315,4.0,6.0,57,0.00,,,0.00,WUHU216HW,2013-07-11 06:56:00,